Weather History for Texarkana, AR

Change the Weather History Date:

Monday, November 21, 2011

  Actual Average Record
Temperature  
Mean Temperature 67 °F 52 °F  
Max Temperature 73 °F 62 °F 84 °F (1909)
Min Temperature 60 °F 42 °F 24 °F (1937)
Degree Days  
Heating Degree Days 0 13  
Month to date heating degree days 131 206  
Since 1 July heating degree days 217 324  
Cooling Degree Days 2 0  
Month to date cooling degree days 47 14  
Year to date cooling degree days 2969 2202  
Growing Degree Days 17 (Base 50)    
Moisture  
Dew Point 64 °F    
Average Humidity 90    
Maximum Humidity 100    
Minimum Humidity 79    
Precipitation  
Precipitation 0.29 in 0.16 in 2.54 in (1934)
Month to date precipitation 1.55 3.28  
Year to date precipitation 23.67 43.06  
Snow  
Snow 0.00 in - - ()
Month to date snowfall 0.0  
Since 1 July snowfall 0.0  
Since 1 September snowfall 0.0  
Snow Depth 0.00 in    
Sea Level Pressure  
Sea Level Pressure 30.02 in    
Wind  
Wind Speed 7 mph (SSE)    
Max Wind Speed 24 mph    
Max Gust Speed 31 mph    
Visibility 6 miles    
Events Rain    
T = Trace of Precipitation, MM = Missing Value Source: NWS Daily Summary

Daily Weather History Graph

Daily Weather History Graph

Search for Another Location

Airport:

Trip Planner

Search our weather history database for the weather conditions in past years. The results will help you decide how hot, cold, wet, or windy it might be!

Date:

Astronomy

Nov. 21, 2011 Rise Set
Actual Time 6:52 AM CST 5:10 PM CST
Civil Twilight 6:26 AM CST 5:37 PM CST
Nautical Twilight 5:55 AM CST 6:07 PM CST
Astronomical Twilight 5:26 AM CST 6:37 PM CST
Moon 2:42 AM CST (11/21) 2:25 PM CST (11/21)
Length of Visible Light 11h 11m
Length of Day
10h 17m
Waning Crescent, 17% of the Moon is Illuminated
Nov 21
Waning Crescent
Nov 25
New
Dec 2
First Quarter
Dec 10
Full
Dec 17
Last Quarter

Hourly Weather History & Observations

Time (CST) Temp. Dew Point Humidity Pressure Visibility Wind Dir Wind Speed Gust Speed Precip Events Conditions
12:41 AM 71.6 °F 66.2 °F 83% 30.07 in 10.0 mi SSW 12.7 mph 18.4 mph N/A   Mostly Cloudy
12:53 AM 72.0 °F 66.0 °F 81% 30.06 in 10.0 mi SSW 11.5 mph 20.7 mph N/A   Overcast
1:53 AM 73.0 °F 66.9 °F 81% 30.05 in 10.0 mi SSW 9.2 mph 19.6 mph N/A   Overcast
2:16 AM 71.6 °F 66.2 °F 83% 30.07 in 10.0 mi SSW 9.2 mph - N/A   Overcast
2:53 AM 72.0 °F 66.9 °F 84% 30.06 in 10.0 mi South 9.2 mph - N/A   Mostly Cloudy
3:10 AM 71.6 °F 66.2 °F 83% 30.07 in 10.0 mi South 9.2 mph - N/A   Mostly Cloudy
3:53 AM 72.0 °F 66.9 °F 84% 30.06 in 10.0 mi South 9.2 mph - 0.00 in   Overcast
4:53 AM 71.1 °F 68.0 °F 90% 30.06 in 10.0 mi SW 5.8 mph - 0.00 in Rain Light Rain
5:01 AM 71.6 °F 68.0 °F 88% 30.08 in 10.0 mi WSW 4.6 mph - 0.00 in Rain Light Rain
5:39 AM 64.4 °F 62.6 °F 94% 30.10 in 8.0 mi NNW 8.1 mph - 0.00 in   Overcast
5:53 AM 64.0 °F 62.1 °F 93% 30.09 in 7.0 mi NNW 4.6 mph - 0.00 in   Overcast
6:53 AM 63.0 °F 61.0 °F 93% 30.11 in 7.0 mi WNW 9.2 mph - 0.01 in   Overcast
7:53 AM 61.0 °F 59.0 °F 93% 30.14 in 5.0 mi NW 5.8 mph - 0.00 in   Overcast
8:53 AM 61.0 °F 57.9 °F 90% 30.14 in 9.0 mi WNW 4.6 mph - 0.00 in   Overcast
9:53 AM 62.1 °F 59.0 °F 90% 30.15 in 9.0 mi Calm Calm - 0.00 in   Overcast
10:53 AM 62.1 °F 60.1 °F 93% 30.14 in 2.0 mi Calm Calm - 0.04 in Rain Rain
11:08 AM 62.6 °F 60.8 °F 94% 30.14 in 4.0 mi Calm Calm - 0.02 in Rain Light Rain
11:53 AM 63.0 °F 61.0 °F 93% 30.10 in 8.0 mi Calm Calm - 0.03 in Rain Light Rain
12:11 PM 62.6 °F 60.8 °F 94% 30.10 in 2.0 mi Calm Calm - 0.09 in Rain Rain
12:22 PM 62.6 °F 60.8 °F 94% 30.09 in 4.0 mi Calm Calm - 0.10 in Rain Rain
12:41 PM 62.6 °F 62.6 °F 100% 30.07 in 9.0 mi ENE 3.5 mph - 0.11 in   Overcast
12:53 PM 63.0 °F 62.1 °F 97% 30.06 in 2.5 mi Calm Calm - 0.14 in Rain Heavy Rain
12:59 PM 62.6 °F 62.6 °F 100% 30.07 in 3.0 mi Calm Calm - 0.00 in Rain Light Rain
1:08 PM 62.6 °F 62.6 °F 100% 30.06 in 1.8 mi Calm Calm - 0.06 in Rain Heavy Rain
1:18 PM 62.6 °F 62.6 °F 100% 30.06 in 3.0 mi Calm Calm - 0.06 in Rain Light Rain
1:53 PM 64.4 °F 62.6 °F 94% 30.03 in 4.0 mi Calm Calm - N/A Rain Light Rain
2:31 PM 64.4 °F 62.6 °F 94% 30.02 in 5.0 mi Calm Calm - N/A Rain Light Rain
2:53 PM 64.0 °F 63.0 °F 96% 30.00 in 5.0 mi Calm Calm - 0.01 in   Overcast
3:00 PM 64.4 °F 62.6 °F 94% 30.00 in 5.0 mi Calm Calm - N/A   Overcast
3:53 PM 64.4 °F 64.4 °F 100% 29.98 in 4.0 mi ENE 5.8 mph - N/A   Overcast
4:53 PM 66.2 °F 64.4 °F 94% 29.94 in 4.0 mi East 4.6 mph - N/A   Overcast
5:04 PM 66.2 °F 64.4 °F 94% 29.94 in 1.8 mi ESE 6.9 mph - N/A   Overcast
5:08 PM 66.2 °F 64.4 °F 94% 29.93 in 0.8 mi East 6.9 mph - N/A   Overcast
5:50 PM 66.2 °F 66.2 °F 100% 29.92 in 1.0 mi Variable 4.6 mph - N/A   Mist
5:53 PM 66.0 °F 66.0 °F 100% 29.91 in 1.0 mi East 5.8 mph - N/A   Mist
6:51 PM 66.2 °F 66.2 °F 100% 29.90 in 2.0 mi ESE 8.1 mph - N/A   Overcast
6:53 PM 66.9 °F 66.9 °F 100% 29.89 in 2.5 mi ESE 5.8 mph - N/A   Overcast
7:02 PM 66.2 °F 66.2 °F 100% 29.89 in 4.0 mi ESE 6.9 mph - N/A   Overcast
7:21 PM 66.2 °F 66.2 °F 100% 29.89 in 5.0 mi ESE 5.8 mph - N/A   Scattered Clouds
7:53 PM 68.0 °F 66.9 °F 96% 29.88 in 10.0 mi SE 11.5 mph 18.4 mph N/A   Clear
8:53 PM 71.1 °F 66.0 °F 84% 29.90 in 10.0 mi SSE 13.8 mph - N/A   Clear
9:53 PM 71.1 °F 64.9 °F 81% 29.90 in 10.0 mi South 17.3 mph 24.2 mph N/A   Overcast
10:53 PM 72.0 °F 64.9 °F 78% 29.86 in 10.0 mi South 19.6 mph 27.6 mph N/A   Mostly Cloudy
11:53 PM 72.0 °F 64.9 °F 78% 29.85 in 10.0 mi South 16.1 mph 25.3 mph N/A   Overcast